TimeCST,TemperatureF,Dew PointF,Humidity,Sea Level PressureIn,VisibilityMPH,Wind Direction,Wind SpeedMPH,Gust SpeedMPH,PrecipitationIn,Events,Conditions,WindDirDegrees,DateUTC
12:15 AM,45.7,21.9,39,30.03,10.0,WSW,4.6,-,N/A,,Clear,240,2012-11-21 06:15:00
12:35 AM,43.2,22.1,43,30.03,10.0,Calm,Calm,-,N/A,,Clear,0,2012-11-21 06:35:00
12:55 AM,41.5,20.8,44,30.02,10.0,Calm,Calm,-,N/A,,Clear,0,2012-11-21 06:55:00
1:15 AM,42.3,21.2,43,30.02,10.0,SSW,8.1,-,N/A,,Clear,200,2012-11-21 07:15:00
1:35 AM,42.3,21.2,43,30.01,10.0,SSW,5.8,-,N/A,,Clear,210,2012-11-21 07:35:00
1:55 AM,42.1,21.2,43,30.00,10.0,SSW,6.9,-,N/A,,Clear,210,2012-11-21 07:55:00
2:15 AM,42.1,21.0,43,30.00,10.0,SSW,9.2,-,N/A,,Clear,210,2012-11-21 08:15:00
2:35 AM,42.1,20.8,43,30.00,10.0,SSW,9.2,-,N/A,,Clear,200,2012-11-21 08:35:00
2:55 AM,41.4,20.7,44,30.00,10.0,South,5.8,-,N/A,,Clear,190,2012-11-21 08:55:00
3:15 AM,37.8,20.7,50,30.00,10.0,Calm,Calm,-,N/A,,Clear,0,2012-11-21 09:15:00
3:35 AM,38.7,20.5,48,29.99,10.0,SSW,3.5,-,N/A,,Clear,200,2012-11-21 09:35:00
3:55 AM,37.9,20.8,50,29.98,10.0,Calm,Calm,-,N/A,,Clear,0,2012-11-21 09:55:00
4:15 AM,37.4,20.5,51,29.98,10.0,WSW,3.5,-,N/A,,Clear,240,2012-11-21 10:15:00
4:35 AM,39.2,20.3,47,29.98,10.0,Calm,Calm,-,N/A,,Clear,0,2012-11-21 10:35:00
4:55 AM,37.9,20.3,49,29.98,10.0,Calm,Calm,-,N/A,,Clear,0,2012-11-21 10:55:00
5:15 AM,38.7,20.3,48,29.97,10.0,SW,6.9,-,N/A,,Clear,220,2012-11-21 11:15:00
5:35 AM,39.2,20.1,46,29.97,10.0,SW,5.8,-,N/A,,Clear,230,2012-11-21 11:35:00
5:55 AM,36.5,20.5,52,29.96,10.0,WSW,3.5,-,N/A,,Clear,240,2012-11-21 11:55:00
6:15 AM,34.2,20.3,57,29.95,10.0,Calm,Calm,-,N/A,,Clear,0,2012-11-21 12:15:00
6:35 AM,32.2,20.3,62,29.95,10.0,Calm,Calm,-,N/A,,Clear,0,2012-11-21 12:35:00
6:55 AM,33.6,20.1,58,29.96,10.0,West,8.1,-,N/A,,Clear,270,2012-11-21 12:55:00
7:15 AM,33.3,19.9,58,29.95,10.0,SE,3.5,-,N/A,,Clear,130,2012-11-21 13:15:00
7:35 AM,33.1,19.6,58,29.96,10.0,Calm,Calm,-,N/A,,Clear,0,2012-11-21 13:35:00
7:55 AM,32.4,19.6,59,29.96,10.0,Calm,Calm,-,N/A,,Clear,0,2012-11-21 13:55:00
8:15 AM,33.4,19.9,58,29.96,10.0,Calm,Calm,-,N/A,,Clear,0,2012-11-21 14:15:00
8:35 AM,38.3,21.0,50,29.94,10.0,South,3.5,-,N/A,,Clear,180,2012-11-21 14:35:00
8:55 AM,42.6,20.3,41,29.94,10.0,Calm,Calm,-,N/A,,Clear,0,2012-11-21 14:55:00
9:15 AM,45.0,20.3,38,29.95,10.0,SSW,8.1,-,N/A,,Clear,210,2012-11-21 15:15:00
9:35 AM,48.0,20.3,33,29.93,10.0,SSW,6.9,-,N/A,,Clear,210,2012-11-21 15:35:00
9:55 AM,50.9,20.8,31,29.93,10.0,Calm,Calm,-,N/A,,Clear,0,2012-11-21 15:55:00
10:15 AM,54.5,21.2,27,29.92,10.0,SW,5.8,-,N/A,,Clear,220,2012-11-21 16:15:00
10:35 AM,58.6,21.4,24,29.92,10.0,SW,8.1,-,N/A,,Clear,220,2012-11-21 16:35:00
10:55 AM,61.2,21.2,22,29.91,10.0,SSW,6.9,-,N/A,,Clear,210,2012-11-21 16:55:00
11:15 AM,64.0,21.2,19,29.91,10.0,SSW,6.9,-,N/A,,Clear,210,2012-11-21 17:15:00
11:35 AM,66.2,21.0,18,29.89,10.0,SSW,6.9,-,N/A,,Clear,200,2012-11-21 17:35:00
11:55 AM,69.3,20.1,15,29.87,10.0,SSW,8.1,-,N/A,,Clear,210,2012-11-21 17:55:00
12:15 PM,70.5,20.1,15,29.87,10.0,SW,10.4,-,N/A,,Clear,230,2012-11-21 18:15:00
12:35 PM,71.6,19.6,14,29.85,10.0,SW,9.2,-,N/A,,Clear,230,2012-11-21 18:35:00
12:55 PM,72.9,19.9,14,29.84,10.0,SW,9.2,-,N/A,,Clear,220,2012-11-21 18:55:00
1:15 PM,74.8,18.5,12,29.83,10.0,WSW,9.2,-,N/A,,Clear,240,2012-11-21 19:15:00
1:35 PM,75.7,18.0,11,29.81,10.0,WSW,11.5,-,N/A,,Clear,250,2012-11-21 19:35:00
1:55 PM,76.1,17.4,11,29.81,10.0,SW,11.5,-,N/A,,Clear,230,2012-11-21 19:55:00
2:15 PM,76.3,15.3,10,29.80,10.0,West,13.8,17.3,N/A,,Clear,260,2012-11-21 20:15:00
2:35 PM,76.3,14.5,10,29.80,10.0,West,13.8,19.6,N/A,,Clear,260,2012-11-21 20:35:00
2:55 PM,76.3,14.7,10,29.79,10.0,West,11.5,16.1,N/A,,Clear,270,2012-11-21 20:55:00
3:15 PM,76.3,14.9,10,29.78,10.0,WSW,6.9,-,N/A,,Clear,240,2012-11-21 21:15:00
3:35 PM,77.0,16.3,10,29.78,10.0,SW,6.9,-,N/A,,Clear,220,2012-11-21 21:35:00
3:55 PM,75.9,16.5,11,29.78,10.0,South,11.5,-,N/A,,Clear,190,2012-11-21 21:55:00
4:15 PM,73.8,17.4,12,29.78,10.0,South,10.4,-,N/A,,Clear,190,2012-11-21 22:15:00
4:35 PM,71.4,16.7,12,29.78,10.0,South,9.2,-,N/A,,Clear,190,2012-11-21 22:35:00
4:55 PM,68.5,18.5,15,29.79,10.0,South,11.5,-,N/A,,Clear,180,2012-11-21 22:55:00
5:15 PM,65.7,19.0,17,29.79,10.0,South,13.8,-,N/A,,Clear,180,2012-11-21 23:15:00
5:35 PM,62.2,21.2,21,29.79,10.0,South,13.8,-,N/A,,Clear,190,2012-11-21 23:35:00
5:55 PM,59.5,21.7,23,29.79,10.0,South,10.4,-,N/A,,Clear,190,2012-11-21 23:55:00
6:15 PM,57.6,21.7,25,29.80,10.0,SSW,9.2,-,N/A,,Clear,200,2012-11-22 00:15:00
6:35 PM,55.4,21.4,27,29.80,10.0,SSW,12.7,-,N/A,,Clear,200,2012-11-22 00:35:00
6:55 PM,55.6,21.6,27,29.80,10.0,SSW,11.5,-,N/A,,Clear,200,2012-11-22 00:55:00
7:15 PM,53.4,21.2,28,29.80,10.0,South,10.4,-,N/A,,Clear,190,2012-11-22 01:15:00
7:35 PM,53.8,20.7,27,29.79,10.0,SSW,13.8,-,N/A,,Clear,200,2012-11-22 01:35:00
7:55 PM,52.3,20.3,28,29.79,10.0,SSW,9.2,-,N/A,,Clear,200,2012-11-22 01:55:00
8:15 PM,51.1,20.3,30,29.79,10.0,SSW,6.9,-,N/A,,Clear,210,2012-11-22 02:15:00
8:35 PM,50.5,20.1,30,29.78,10.0,SSW,8.1,-,N/A,,Clear,210,2012-11-22 02:35:00
8:55 PM,49.8,20.1,31,29.78,10.0,SW,8.1,-,N/A,,Clear,220,2012-11-22 02:55:00
9:15 PM,51.8,20.1,29,29.78,10.0,SSW,11.5,-,N/A,,Clear,210,2012-11-22 03:15:00
9:35 PM,51.8,19.8,28,29.78,10.0,SW,11.5,-,N/A,,Clear,220,2012-11-22 03:35:00
9:55 PM,49.3,19.4,31,29.78,10.0,West,4.6,-,N/A,,Clear,270,2012-11-22 03:55:00
10:15 PM,48.2,19.4,32,29.77,10.0,SW,6.9,-,N/A,,Clear,220,2012-11-22 04:15:00
10:35 PM,43.5,19.4,38,29.78,10.0,NW,3.5,-,N/A,,Clear,310,2012-11-22 04:35:00
10:55 PM,45.0,19.4,36,29.78,10.0,SW,3.5,-,N/A,,Clear,230,2012-11-22 04:55:00
11:15 PM,44.8,19.4,36,29.78,10.0,West,4.6,-,N/A,,Clear,260,2012-11-22 05:15:00
11:35 PM,45.0,20.3,38,29.77,10.0,West,3.5,-,N/A,,Clear,260,2012-11-22 05:35:00
11:55 PM,43.2,20.3,40,29.78,10.0,Calm,Calm,-,N/A,,Clear,0,2012-11-22 05:55:00